Weather Service Report


940 
ASUS42 KTBW 172210
RWRFL 
FLORIDA REGIONAL WEATHER ROUNDUP
NATIONAL WEATHER SERVICE TAMPA BAY RUSKIN FL
600 PM EDT THU APR 17 2014

NOTE: "FAIR" INDICATES FEW OR NO CLOUDS BELOW 12,000 FEET WITH NO
SIGNIFICANT WEATHER AND/OR OBSTRUCTIONS TO VISIBILITY.


FLZ001>010-012>015-112-114-115-172300-
PANHANDLE FLORIDA
  
CITY           SKY/WX    TMP DP  RH WIND       PRES   REMARKS
PENSACOLA      CLOUDY    72  54  53 NE8       30.14S                  
PENSACOLA NAS  LGT RAIN  68  59  73 SE6       30.15R                  
MILTON NAS     CLOUDY    70  54  56 NE10      30.16R                  
CRESTVIEW      CLOUDY    70  55  59 NE12      30.19S                  
DUKE FIELD     CLOUDY    70  55  59 NE10      30.17S                  
VALPARAISO     CLOUDY    71  58  62 E6        30.16R                  
MARY ESTHER    CLOUDY    70  52  52 NE12      30.14S                  
TRI COUNTY     CLOUDY    67  55  65 NE8       30.20R                  
PANAMA CITY    CLOUDY    71  56  58 NE9       30.15R                  
TYNDALL AFB    CLOUDY    71  64  79 NE6       30.15R                  
APALACHICOLA   CLOUDY    68  60  75 E13       30.15S                  

STATION/POSITION SKY/WX   TEMP    WIND        PRES    WAVE   SWELL
                          AIR SEA DIR/SP/G            HT/PER HT/PER
                          (F)     (DEG/KT/KT) (MB)    (FT/S) (FT/S)
30.1N   87.6W              64 66   40/ 12/ 16 1021.0R   5/ 6   3/ 6
29.2N   88.2W              66 71   60/ 19/ 23 1020.1R
28.8N   86.0W              67 68   70/ 21/ 25 1019.1    9/ 7
PANAMA CITY BEAC           69 68  110/  8/ 13 1020.7S
CAPE SAN BLAS    NOT AVBL
TOWER C                    65      50/ 24/ 27 1019.8F
28.5N   84.5W              70 69   60/ 14/ 17 1018.9F   5/ 6

$$
FLZ011-016>038-118-127-128-134-139-239-172300-
NORTH FLORIDA
  
CITY           SKY/WX    TMP DP  RH WIND       PRES   REMARKS
MARIANNA       CLOUDY    69  55  60 E14       30.19S                  
TALLAHASSEE    CLOUDY    70  55  59 E14G24    30.19S                  
PERRY          CLOUDY    68  59  73 NE6       30.20R                  
CROSS CITY       N/A     72  61  68 NE12G21   30.17R                  
GAINESVILLE    PTSUNNY   72  60  66 E14       30.19S                  
MAYPORT NAS    LGT RAIN  65  61  87 NE22G29   30.26R FOG              
JACKSONVILLE   CLOUDY    64  60  87 NE18G26   30.27R                  
JAX NAS        CLOUDY    69  59  70 NE21G26   30.25R                  
JAX CRAIG      CLOUDY    68  60  75 NE16G26   30.25R                  
JAX CECIL      CLOUDY    66  59  77 NE12G22   30.25R                  
FERNANDINA BEA CLOUDY    63  59  88 NE15G22   30.27R                  
ST AUGUSTINE   CLOUDY    68  63  84 N20G25    30.25R HAZE             

STATION/POSITION SKY/WX   TEMP    WIND        PRES    WAVE   SWELL
                          AIR SEA DIR/SP/G            HT/PER HT/PER
                          (F)     (DEG/KT/KT) (MB)    (FT/S) (FT/S)
SHELL POINT                68      60/  6/ 12 1021.0F
KEATON BEACH               69      60/ 12/ 20 1021.6S
CEDAR KEY                  71      80/ 16/ 17 1020.9F
FERNANDINA                 63 65   30/ 11/ 19 1024.6R
30.7N   81.3W                 64                N/A     8/ 7   2/12
MAYPORT                    63 65   40/ 22/ 26   N/A
31.4N   80.9W              62 64   50/ 21/ 25 1025.5F   7/ 7   3/10
ST AUGUSTINE               65      10/ 17/ 19 1024.4R

$$
FLZ040-043>046-052-053-057-058-063-144-172300-
INTERIOR CENTRAL FLORIDA
  
CITY           SKY/WX    TMP DP  RH WIND       PRES   REMARKS
OCALA          CLOUDY    73  57  56 E9G17     30.19R                  
THE VILLAGES     N/A     75  59  57 NE18G24   30.17R                  
LEESBURG       MOSUNNY   77  60  55 E21G28    30.17R                  
SANFORD        PTSUNNY   75  62  64 E18       30.18R                  
ORLANDO EXEC   CLOUDY    75  62  64 E18       30.16R                  
ORLANDO INTL   CLOUDY    75  62  64 E20       30.16R                  
KISSIMMEE      CLOUDY    73  66  78 E21       30.15S                  
WINTER HAVEN   CLOUDY    73  64  73 E20G26    30.15R                  
LAKELAND       CLOUDY    75  64  69 E20G25    30.13S                  
BARTOW         CLOUDY    73  64  73 E12G18    30.14S                  
OKEECHOBEE     CLOUDY    73  70  88 E9        30.11F                  

$$
FLZ041-047-054-059-064-141-147-172300-
EAST CENTRAL FLORIDA
  
CITY           SKY/WX    TMP DP  RH WIND       PRES   REMARKS
ORMOND BEACH   MOSUNNY   73  61  64 E15G21    30.21S                  
DAYTONA BEACH  CLOUDY    73  60  63 NE17      30.20R                  
NEW SMYRNA BEA MOSUNNY   75  63  64 NE12G17   30.20S                  
JFK SPACE CTR  CLOUDY    74  65  74 E12G21    30.17S                  
TITUSVILLE     PTSUNNY   73  64  73 E21       30.16F                  
CAPE CANAVERAL MOSUNNY   74  66  76 E10G20    30.14F                  
PATRICK AFB    CLOUDY    73  70  88 NE17      30.14F                  
MELBOURNE      CLOUDY    75  68  78 NE16G25   30.14F                  
VERO BEACH     CLOUDY    75  69  81 E18G24    30.13F                  
FT PIERCE      CLOUDY    75  68  78 E15       30.12F                  
STUART         RAIN      73  72  94 E17G26    30.13                   

STATION/POSITION SKY/WX   TEMP    WIND        PRES    WAVE   SWELL
                          AIR SEA DIR/SP/G            HT/PER HT/PER
                          (F)     (DEG/KT/KT) (MB)    (FT/S) (FT/S)
28.5N   80.2W              74 75   60/ 19/ 23 1021.3S
28.9N   78.5W              73 76   60/ 21/ 25 1021.9F   9/11   7/11
TRIDENT PIER               74 74   40/ 16/ 22 1020.7R
28.4N   80.5W                 72                N/A     4/ 5   2/11
27.6N   80.2W                 73                N/A     7/10   3/11

$$
FLZ050-056-061-142-242-148-248-149-249-151-251-155-255-
160-260-172300-
WEST CENTRAL FLORIDA
  
CITY           SKY/WX    TMP DP  RH WIND       PRES   REMARKS
CRYSTAL RIVER  FAIR      77  59  53 E15G24    30.14S                  
INVERNESS      CLOUDY    75  57  53 E10G17    30.17R                  
BROOKSVILLE    PTSUNNY   75  60  59 E15G24    30.14R                  
ZEPHYRHILLS    CLOUDY    73  61  64 E14G22    30.14S                  
CLEARWATER     CLOUDY    75  65  70 E15G24    30.11R                  
TAMPA INTL     CLOUDY    76  64  66 E12G24    30.12R                  
TAMPA EXEC     CLOUDY    77  63  61 E15G23    30.13R                  
PLANT CITY     CLOUDY    77  66  69 E17G23    30.14S                  
MACDILL AFB    PTSUNNY   76  69  78 E21G31    30.10R                  
PETER O KNIGHT CLOUDY    77  66  69 E21G26    30.11S                  
ST PETERSBURG  CLOUDY    76  68  76 E21       30.10R                  
SARASOTA       CLOUDY    78  67  68 E17G26    30.06R                  
VENICE           N/A     77  72  83 E14G20    30.08R                  

STATION/POSITION SKY/WX   TEMP    WIND        PRES    WAVE   SWELL
                          AIR SEA DIR/SP/G            HT/PER HT/PER
                          (F)     (DEG/KT/KT) (MB)    (FT/S) (FT/S)
CEDAR KEY                  71      80/ 16/ 17 1020.9F
28.5N   84.5W              70 69   60/ 14/ 17 1018.9F   5/ 6
27.3N   84.3W                 73                N/A     5/ 6
CLEARWATER BEACH           76 72   70/ 18/ 25 1018.3F
MIDDLE TAMPA BAY           75     100/ 21/ 28 1018.5F
VENICE                     76 74  110/ 12/ 16 1018.2R

$$
FLZ066-069-070-075>078-162-262-165-265-172300-
SOUTHWEST FLORIDA AND KEYS
  
CITY           SKY/WX    TMP DP  RH WIND       PRES   REMARKS
PUNTA GORDA    RAIN      71  67  87 SE9       30.11R FOG              
FT MYERS       CLOUDY    70  67  90 E9        30.07R                  
SOUTHWEST INTL LGT RAIN  69  66  90 E9        30.07S                  
NAPLES         CLOUDY    72  72 100 E12       30.06S                  
MARATHON       MOSUNNY   82  73  74 E15       30.03R                  
KEY WEST NAS   MOSUNNY   83  74  74 E17       30.02R                  
KEY WEST INTL  MOSUNNY   83  74  74 E17       30.03R                  

STATION/POSITION SKY/WX   TEMP    WIND        PRES    WAVE   SWELL
                          AIR SEA DIR/SP/G            HT/PER HT/PER
                          (F)     (DEG/KT/KT) (MB)    (FT/S) (FT/S)
VENICE                     76 74  110/ 12/ 16 1018.2R
NAPLES                     71 76   70/  7/ 11 1018.2S
26.0N   85.6W              76 80   90/ 14/ 17 1015.9F   4/ 7   3/ 7
DRY TORTUGAS     NOT AVBL
NW FL BAY                  82     110/ 12/ 14 1017.1F
SOMBRERO KEY               80      80/ 18/ 19 1017.4R
LONG KEY                   80 82   90/ 15/ 18 1017.9R
MOLASSES REEF              79 79   80/ 18/ 19 1017.1F

$$
FLZ067-068-071>074-168-172>174-172300-
SOUTHEAST FLORIDA 
  
CITY           SKY/WX    TMP DP  RH WIND       PRES   REMARKS
W PALM BEACH   LGT RAIN  77  71  82 E17       30.08F                  
FT LAUDER-EXEC LGT RAIN  75  72  90 E18G26    30.06F                  
FT LAUDERDALE  LGT RAIN  76  75  97 NE14G24   30.06F                  
POMPANO BEACH  CLOUDY    77  72  84 E15G24    30.06F                  
PEMBROKE PINES CLOUDY    77  73  87 E10       30.08F                  
OPA LOCKA      CLOUDY    79  71  76 E13       30.07F                  
MIAMI          PTSUNNY   80  71  74 E15       30.06F                  
WEST KENDALL   MOSUNNY   80  71  74 E14       30.06S                  
HOMESTEAD      MOSUNNY   77  70  78 NE9       30.06S                  

STATION/POSITION SKY/WX   TEMP    WIND        PRES    WAVE   SWELL
                          AIR SEA DIR/SP/G            HT/PER HT/PER
                          (F)     (DEG/KT/KT) (MB)    (FT/S) (FT/S)
PORT EVERGLADES            75      50/ 16/ 20 1018.2
VIRGINIA KEY               78 80   80/ 15/ 18 1018.1F
LAKE WORTH                 76 77   50/ 21/ 25 1018.5S
FOWEY ROCKS                78 79   70/ 17/ 18 1017.8F
SETTLEMENT POINT           76      60/ 23/ 26 1020.1S

$$


Return to Home page


Western Regional Climate Center, wrcc@dri.edu